Weather reports worldwide

Advertisment
Murcia, Spain (8430): temperature & dewpoint: 16.02.2019 22:00:00 - 22.02.2019 22:00:00 (CET)Murcia, Spain (8430): wind speed: 16.02.2019 22:00:00 - 22.02.2019 22:00:00 (CET)Murcia, Spain (8430): wind direction: 16.02.2019 22:00:00 - 22.02.2019 22:00:00 (CET)Murcia, Spain (8430): reduced air pressure: 16.02.2019 22:00:00 - 22.02.2019 22:00:00 (CET)Murcia, Spain (8430): visibility: 16.02.2019 22:00:00 - 22.02.2019 22:00:00 (CET)Murcia, Spain (8430): precipitation: 16.02.2019 22:00:00 - 22.02.2019 22:00:00 (CET)
Date & Time tt [°C] td [°C] ff [km/h] ff [kn] dd ppp [hPa] vv [km] rr [mm]
22.02.2019 22:00:00 10,9 6,0 2 1 SE 1029,5 12 -
22.02.2019 21:00:00 13,8 7,6 9 5 SW 1029,1 14 0,0
22.02.2019 20:00:00 15,4 7,4 9 5 WSW 1028,7 16 0,0
22.02.2019 19:00:00 17,8 5,7 11 6 SW 1028,1 20 -
22.02.2019 18:00:00 22,1 5,9 9 5 SSW 1027,7 20 0,0
22.02.2019 17:00:00 23,5 -5,6 4 2 ESE 1027,7 20 0,0
22.02.2019 16:00:00 23,6 -2,9 5 3 ESE 1028,0 20 -
22.02.2019 15:00:00 22,6 -6,3 5 3 SSE 1028,3 20 0,0
22.02.2019 14:00:00 20,8 -1,7 4 2 S 1029,3 20 0,0
22.02.2019 13:00:00 18,0 2,3 4 2 ESE 1030,8 20 -
22.02.2019 12:00:00 15,4 2,9 5 3 SSW 1031,9 19 0,0
22.02.2019 11:00:00 12,7 3,1 4 2 WSW 1032,7 20 0,0
22.02.2019 10:00:00 9,6 3,6 8 4 NW 1032,8 20 -
22.02.2019 09:00:00 6,7 3,1 5 3 WSW 1032,9 13 0,0
22.02.2019 08:00:00 4,2 2,7 4 2 W 1032,5 9 0,0
22.02.2019 07:00:00 4,3 3,1 4 2 SW 1032,5 20 -
22.02.2019 06:00:00 4,2 2,4 2 1 SW 1032,8 6 0,0
22.02.2019 05:00:00 5,2 3,8 8 4 WNW 1032,4 8 0,0
22.02.2019 04:00:00 6,2 4,0 5 3 W 1032,4 8 -
22.02.2019 03:00:00 6,7 4,4 8 4 W 1032,7 8 0,0
22.02.2019 02:00:00 7,4 5,4 8 4 WSW 1032,8 8 0,0
22.02.2019 01:00:00 7,5 5,0 4 2 SSW 1032,8 6 -
22.02.2019 00:00:00 8,2 5,8 4 2 W 1032,7 7 0,0
21.02.2019 23:00:00 9,0 6,1 4 2 W 1032,8 10 0,0
21.02.2019 22:00:00 9,6 6,3 4 2 NE 1032,3 12 -
21.02.2019 21:00:00 10,8 6,9 8 4 NE 1031,5 15 0,0
21.02.2019 20:00:00 11,8 6,7 9 5 NE 1030,8 16 0,0
21.02.2019 19:00:00 14,7 6,8 5 3 SE 1029,8 25 -
21.02.2019 18:00:00 16,6 6,1 8 4 E 1029,5 20 0,0
21.02.2019 17:00:00 17,6 5,5 8 4 E 1029,2 20 0,0
21.02.2019 16:00:00 17,8 5,0 4 2 E 1029,3 19 -
21.02.2019 15:00:00 17,8 5,4 8 4 ESE 1029,3 19 0,0
21.02.2019 14:00:00 17,1 5,4 8 4 E 1029,7 19 0,0
21.02.2019 13:00:00 15,8 6,5 5 3 WSW 1030,3 20 -
21.02.2019 12:00:00 14,6 6,7 5 3 SW 1030,6 16 0,0
21.02.2019 11:00:00 13,1 6,9 5 3 WNW 1030,7 14 0,0
21.02.2019 10:00:00 10,4 6,9 5 3 WNW 1030,5 10 -
21.02.2019 09:00:00 8,6 6,7 8 4 WNW 1030,2 9 0,0
21.02.2019 08:00:00 5,6 4,6 2 1 ENE 1029,5 4,4 0,0
21.02.2019 07:00:00 6,2 5,2 2 1 WSW 1028,9 5 -
21.02.2019 06:00:00 6,2 5,0 4 2 W 1028,5 - 0,0
21.02.2019 05:00:00 7,3 5,8 5 3 S 1028,2 6 0,0
21.02.2019 04:00:00 8,0 6,6 5 3 WSW 1028,2 7 -
21.02.2019 03:00:00 7,1 5,6 4 2 SW 1028,2 6 0,0
21.02.2019 02:00:00 7,3 5,1 2 1 SE 1028,3 4,9 0,0
21.02.2019 01:00:00 8,6 7,2 4 2 W 1028,2 - -
21.02.2019 00:00:00 8,9 7,3 2 1 ESE 1028,1 8 0,0
20.02.2019 23:00:00 9,1 7,4 5 3 NE 1028,1 8 0,0
20.02.2019 22:00:00 9,7 7,5 5 3 NE 1027,7 11 -
20.02.2019 21:00:00 10,5 7,7 9 5 ENE 1026,8 13 0,0
20.02.2019 20:00:00 12,4 7,5 9 5 ENE 1026,0 18 0,0
20.02.2019 19:00:00 13,9 7,4 9 5 E 1025,1 20 -
20.02.2019 18:00:00 15,8 6,8 11 6 E 1024,3 20 0,0
20.02.2019 17:00:00 17,1 6,6 16 9 E 1024,1 16 0,0
20.02.2019 16:00:00 18,1 5,6 9 5 E 1024,1 20 -
20.02.2019 15:00:00 18,2 5,4 5 3 E 1024,4 20 0,0
20.02.2019 14:00:00 16,9 5,5 5 3 NNE 1024,9 20 0,0
20.02.2019 13:00:00 16,2 6,0 5 3 WSW 1025,4 20 -
20.02.2019 12:00:00 14,6 5,7 5 3 N 1025,9 20 0,0
20.02.2019 11:00:00 13,2 6,3 8 4 WSW 1025,9 19 0,0
20.02.2019 10:00:00 11,2 7,1 4 2 S 1025,6 14 -
20.02.2019 09:00:00 10,3 6,4 4 2 W 1025,0 15 0,0
20.02.2019 08:00:00 9,6 6,5 2 1 WSW 1024,1 15 0,0
20.02.2019 07:00:00 9,4 6,3 2 1 SW 1023,5 15 -
20.02.2019 06:00:00 9,1 6,4 4 2 SW 1023,3 14 0,0
20.02.2019 05:00:00 9,2 6,6 4 2 S 1023,2 13 0,0
20.02.2019 04:00:00 9,3 6,6 4 2 W 1023,3 16 -
20.02.2019 03:00:00 8,5 6,6 2 1 N 1023,5 10 0,0
20.02.2019 02:00:00 8,0 6,6 2 1 WNW 1023,6 7 0,0
20.02.2019 01:00:00 8,1 6,6 5 3 WNW 1023,4 7 -
20.02.2019 00:00:00 9,4 7,2 2 1 WNW 1023,4 8 0,0
19.02.2019 23:00:00 9,9 7,8 4 2 NW 1023,3 11 0,0
19.02.2019 22:00:00 10,1 7,5 5 3 WNW 1022,8 11 -
19.02.2019 21:00:00 10,4 7,5 2 1 NE 1022,4 13 0,0
19.02.2019 20:00:00 12,0 8,3 9 5 ENE 1021,7 16 0,0
19.02.2019 19:00:00 13,1 7,7 11 6 E 1020,8 15 -
19.02.2019 18:00:00 14,5 7,3 15 8 E 1020,2 20 0,0
19.02.2019 17:00:00 16,3 7,0 18 10 E 1019,9 20 0,0
19.02.2019 16:00:00 17,0 5,9 16 9 E 1019,8 20 -
19.02.2019 15:00:00 17,6 3,8 8 4 E 1020,1 20 0,0
19.02.2019 14:00:00 17,1 4,1 8 4 E 1020,9 20 0,0
19.02.2019 13:00:00 16,3 5,3 5 3 SSE 1021,5 20 -
19.02.2019 12:00:00 13,9 6,0 5 3 WNW 1022,3 17 0,0
19.02.2019 11:00:00 12,0 5,6 8 4 W 1022,3 18 0,0
19.02.2019 10:00:00 10,0 5,4 8 4 W 1022,6 20 -
19.02.2019 09:00:00 7,2 4,7 5 3 NW 1022,3 15 0,0
19.02.2019 08:00:00 6,3 4,0 5 3 W 1021,7 14 0,0
19.02.2019 07:00:00 6,6 4,3 4 2 SW 1021,4 15 -
19.02.2019 06:00:00 7,7 4,8 5 3 W 1021,2 17 0,0
19.02.2019 05:00:00 7,6 5,1 4 2 E 1021,0 17 0,0
19.02.2019 04:00:00 7,9 5,5 5 3 NE 1021,1 16 -
19.02.2019 03:00:00 8,4 6,2 8 4 WNW 1021,2 16 0,0
19.02.2019 02:00:00 8,7 6,7 15 8 NW 1021,2 14 0,0
19.02.2019 01:00:00 9,3 7,7 9 5 WNW 1021,2 10 -
19.02.2019 00:00:00 9,6 8,0 11 6 NW 1021,3 8 0,0
18.02.2019 23:00:00 9,6 7,7 8 4 NNW 1021,3 9 0,0
18.02.2019 22:00:00 10,3 8,6 4 2 N 1021,2 10 -
18.02.2019 21:00:00 10,9 8,8 8 4 ENE 1020,6 13 0,0
18.02.2019 20:00:00 11,5 8,5 4 2 NE 1020,5 15 0,0
18.02.2019 19:00:00 13,2 8,9 9 5 E 1019,8 20 -
18.02.2019 18:00:00 14,7 8,9 11 6 E 1019,2 20 0,0
18.02.2019 17:00:00 16,1 7,8 16 9 ENE 1019,1 20 0,0
18.02.2019 16:00:00 16,8 7,4 16 9 E 1019,4 20 -
18.02.2019 15:00:00 16,7 8,4 13 7 E 1019,8 20 0,0
18.02.2019 14:00:00 16,7 8,4 9 5 E 1020,4 19 0,0
18.02.2019 13:00:00 16,3 8,0 8 4 ENE 1021,4 18 -
18.02.2019 12:00:00 15,2 8,4 5 3 SE 1022,1 16 0,0
18.02.2019 11:00:00 12,5 6,7 8 4 WNW 1022,3 16 0,0
18.02.2019 10:00:00 10,4 6,0 8 4 W 1022,5 15 -
18.02.2019 09:00:00 9,4 5,8 15 8 NW 1022,4 18 0,0
18.02.2019 08:00:00 9,1 5,6 13 7 NW 1022,0 19 0,0
18.02.2019 07:00:00 9,0 5,9 11 6 NW 1021,9 15 -
18.02.2019 06:00:00 8,8 6,4 9 5 NNW 1022,1 16 0,0
18.02.2019 05:00:00 8,8 7,1 5 3 NNW 1022,1 13 0,0
18.02.2019 04:00:00 8,6 6,9 5 3 NW 1022,7 11 -
18.02.2019 03:00:00 8,7 7,3 8 4 NW 1023,3 9 0,0
18.02.2019 02:00:00 9,1 7,2 2 1 WSW 1023,6 6 0,0
18.02.2019 01:00:00 10,3 8,2 2 1 W 1024,0 8 -
18.02.2019 00:00:00 10,4 8,7 5 3 NW 1024,1 8 0,0
17.02.2019 23:00:00 9,8 8,4 5 3 NNW 1024,4 8 0,0
17.02.2019 22:00:00 9,8 8,4 5 3 NNE 1024,2 8 -
17.02.2019 21:00:00 10,5 8,6 5 3 ENE 1024,1 10 0,0
17.02.2019 20:00:00 11,3 8,3 8 4 ENE 1023,9 14 0,0
17.02.2019 19:00:00 13,0 8,3 9 5 ENE 1023,3 10 -
17.02.2019 18:00:00 14,4 7,9 13 7 E 1023,2 20 0,0
17.02.2019 17:00:00 16,2 7,9 11 6 E 1023,2 20 0,0
17.02.2019 16:00:00 16,4 8,4 11 6 ENE 1023,7 15 -
17.02.2019 15:00:00 15,9 7,1 13 7 E 1024,3 19 0,0
17.02.2019 14:00:00 15,0 5,8 5 3 ESE 1025,5 10 0,0
17.02.2019 13:00:00 12,4 3,1 5 3 WSW 1026,7 15 -
17.02.2019 12:00:00 11,0 2,3 5 3 WNW 1027,2 19 0,0
17.02.2019 11:00:00 8,7 1,6 5 3 W 1027,6 19 0,0
17.02.2019 10:00:00 7,4 1,7 5 3 WNW 1027,8 10 -
17.02.2019 09:00:00 6,7 1,4 8 4 W 1027,6 20 0,0
17.02.2019 08:00:00 6,2 1,7 8 4 WNW 1027,1 20 0,0
17.02.2019 07:00:00 5,4 1,5 8 4 WSW 1027,1 10 -
17.02.2019 06:00:00 4,9 1,2 5 3 SSW 1026,9 20 0,0
17.02.2019 05:00:00 5,4 1,1 4 2 SSW 1026,9 20 0,0
17.02.2019 04:00:00 5,9 1,6 4 2 SSW 1027,2 20 -
17.02.2019 03:00:00 6,5 1,8 8 4 NW 1027,5 20 0,0
17.02.2019 02:00:00 6,5 2,9 5 3 SE 1027,7 18 0,0
17.02.2019 01:00:00 7,5 3,5 4 2 S 1027,9 15 -
17.02.2019 00:00:00 8,0 4,0 5 3 WNW 1028,1 19 0,0
16.02.2019 23:00:00 8,5 5,2 8 4 WNW 1028,2 16 0,0
16.02.2019 22:00:00 8,4 5,0 5 3 N 1027,9 20 -

tt = temperature
td = dewpoint
ff = wind speed
dd = wind direction
ppp = reduced air pressure
vv = visibility
rr = precipitation

Next stations